BEIDOU-3 IGSO-1

Last updated on Wed Sep 09 2026 00:03:02 GMT+0000 (Coordinated Universal Time)

1 44204U 19023A 26250.73892373 -.00000201 00000+0 00000+0 0 9998 2 44204 58.8141 36.8058 0027421 223.4639 111.5661 1.00267210 8039
UTC large
Height (km)
Speed (km/s)
/
Latitude / Longitude
Inclination (degrees)
Orbital Period (minutes)
Azimuth
Elevation
Range (km)
Doppler Factor

Next 0 passes for location: London (51.5072 / 0.1276)

No passes found over London.
BEIDOU-3 IGSO-1